Hourly Data Report for September 16, 2017

All times are specified in Local Standard Time (LST). Add 1 hour to adjust for Daylight Saving Time where and when it is observed.

EUREKA CLIMATE
NUNAVUT

79°59'21.000" N
85°56'02.000" W
10.00 m
2401199
71613
NEK

Download Data

Hourly Data (September 2017)
Hourly Data Report for September 16, 2017
Temp Definition
°C
Dew Point Temp Definition
°C
Rel Hum Definition
%
Wind Dir Definition
10's deg

Wind Spd Definition
km/h
Visibility Definition
km
Stn Press Definition
kPa
Hmdx Definition


Wind Chill Definition


Weather Definition


TIME
00:00 -2.1 -2.5 98 17 28   99.38   -9 LegendNANA
01:00 -2.0 -2.6 96 20 23   99.44   -8 LegendNANA
02:00 -4.1 -5.2 92 26 7   99.53   -7 LegendNANA
03:00 -4.9 -5.3 97 14 11   99.58   -9 LegendNANA
04:00 -5.7 -6.0 98 11 8   99.61   -9 LegendNANA
05:00 -6.8 -7.6 94 17 19   99.70   -14 LegendNANA
06:00 -6.6 -7.5 93 9 11   99.76   -12 LegendNANA
07:00 -6.7 -7.6 93 12 12   99.84   -12 LegendNANA
08:00 -6.4 -7.0 95 14 5   99.90   -9 LegendNANA
09:00 -6.5 -7.4 93 11 8   99.95   -10 LegendNANA
10:00 -6.3 -7.6 90 7 4   100.03   -8 LegendNANA
11:00 -6.2 -7.7 90 36 10   100.10   -11 LegendNANA
12:00 -6.1 -8.1 85 1 10   100.16   -11 LegendNANA
13:00 -6.4 -8.3 87 35 5   100.22   -9 LegendNANA
14:00 -6.1 -7.8 88 24 3   100.27   -8 LegendNANA
15:00 -6.3 -8.5 85 4 6   100.33   -9 LegendNANA
16:00 -6.7 -7.8 92 27 11   100.36   -12 LegendNANA
17:00 -7.3 -7.7 96 28 18   100.43   -14 LegendNANA
18:00 -7.1 -7.7 96 28 13   100.45   -13 LegendNANA
19:00 -7.3 -7.8 96 30 11   100.49   -12 LegendNANA
20:00 -7.4 -8.0 96 30 11   100.49   -12 LegendNANA
21:00 -7.8 -8.4 95 30 4   100.51   -10 LegendNANA
22:00 -8.7 -9.3 95 9 9   100.50   -13 LegendNANA
23:00 -8.3 -8.7 97 12 14   100.49   -14 LegendNANA

Notes on Data Quality.

Legend

  • E = Estimated
  • M = Missing
  • NA = Not Available
  • ‡ = Partner data that is not subject to review by the National Climate Archives
Date modified: